CZ-7A R/B, 67303

Orbit data source: Space-Track

CZ-7A R/B, 67303 is space debris in HEO originally from a launch on Tue, 30 Dec 2025 UTC launched from the Wenchang Satellite Launch Center (WSC). Debris objects in space refer to the collection of defunct objects orbiting the Earth. Examples of debris include non-operational satellites, rocket bodies, and fragments generated from explosions, collisions, or faulty payload assembly.

Loading next visibility...
Identifier
67303, 2025-315B
Orbit
HEO
Country
Flag of CNCN / PRC
Related business
Manufacturer
CALT
Mission
Spacecraft
Bus & Motor
CZ-3A STAGE 3, Unknown motor
Mass
~2,800 kg wet, ~2,800 kg dry
Launch date (UTC)
2025-12-30 (6 months ago)
Launch vehicle
Unknown
Launch site
Wenchang Satellite Launch Center (WSC)
Object type
Payload
Rocket body
Debris
Shape & HBR
Cyl + 1 Nozzle, 8.0 m
Radar Cross Section
32.704 m², Large (>1 m²)

Expand to show TLE details & history
Last TLE update: 23 hours ago

TLE from 23 hours ago
0 CZ-7A R/B
1 67303U 25315B   26170.87919713  .00008829  00000-0  65032-3 0  9992
2 67303  19.7843  25.8575 7122358 315.3636   5.6653  2.51213918  4269
Epoch: 2026-06-19T21:06Z
TLE epoch observation values (Epoch: 2026-06-19T21:06:02.632Z)
Latitude
0.00151°
Longitude
161.25073°
Altitude
1,118.717 km
Speed
9.428 km/s
True Right ascension
01h 43m 27s
True Declination
0° 00' 05"
Sunlit
Object was in daylight at epoch
Visualization orbit readout
Latitude
Unknown
Longitude
Unknown
Altitude
Unknown
Speed
Unknown
Apparent Right ascension
Unknown
Apparent Declination
Unknown
Sunlit
N/A
Visualization observer readout
Local Sidereal Time
07:15:58
Azimuth
Unknown
Elevation
Unknown
Doppler factor
Unknown
Orbital elements
Apogee altitude
32,768.177 km
Perigee altitude
200.926 km
Semi-major axis
22,862.689 km
Eccentricity
0.71224
Inclination
19.7843°
RAAN
25.8575°
Arg. of periapsis
315.3636°
True anomaly
44.08796°
Mean anomaly
5.6653°
Eccentric anomaly
18.85018°
Mean motion
0.62784 °/min
Orbital period
573.39 mins
BSTAR
0.00065032
Loading maneuver chart data...
Computing Atmospheric mass density...
Loading historical data...
Loading historical data...
Loading historical data...
Loading historical data...
Loading historical data...
Loading historical data...
Loading historical data...
Other satellites on launch #315 in the year 2025 (2025-12-30 UTC)

Documentation

Showing up to 5 results
|